Time,TemperatureF,DewpointF,PressureIn,WindDirection,WindDirectionDegrees,WindSpeedMPH,WindSpeedGustMPH,Humidity,HourlyPrecipIn,Conditions,Clouds,dailyrainin,SoftwareType,DateUTC
2013-02-02 00:01:00,19.0,2.3,-100.00,North,-999,-999.0,-999.0,53,-99.99,,,-99.99,,2013-02-02 05:01:00,
2013-02-02 00:03:00,19.0,2.3,-100.00,North,-999,-999.0,-999.0,53,-99.99,,,-99.99,,2013-02-02 05:03:00,
2013-02-02 00:06:00,19.0,1.9,-100.00,North,-999,-999.0,-999.0,52,-99.99,,,-99.99,,2013-02-02 05:06:00,
2013-02-02 00:08:00,18.9,2.0,-100.00,North,-999,-999.0,-999.0,53,-99.99,,,-99.99,,2013-02-02 05:08:00,
2013-02-02 00:13:00,19.0,2.0,-100.00,North,-999,-999.0,-999.0,52,-99.99,,,-99.99,,2013-02-02 05:13:00,
2013-02-02 00:18:00,18.9,2.0,-100.00,North,-999,-999.0,-999.0,53,-99.99,,,-99.99,,2013-02-02 05:18:00,
2013-02-02 00:23:00,18.7,1.7,-100.00,North,-999,-999.0,-999.0,52,-99.99,,,-99.99,,2013-02-02 05:23:00,
2013-02-02 00:28:00,18.7,1.7,-100.00,North,-999,-999.0,-999.0,52,-99.99,,,-99.99,,2013-02-02 05:28:00,
2013-02-02 00:33:00,18.7,2.0,-100.00,North,-999,-999.0,-999.0,53,-99.99,,,-99.99,,2013-02-02 05:33:00,
2013-02-02 00:38:00,18.7,1.5,-100.00,North,-999,-999.0,-999.0,52,-99.99,,,-99.99,,2013-02-02 05:38:00,
2013-02-02 00:43:00,18.7,1.9,-100.00,North,-999,-999.0,-999.0,53,-99.99,,,-99.99,,2013-02-02 05:43:00,
2013-02-02 00:48:00,18.5,1.0,-100.00,North,-999,-999.0,-999.0,51,-99.99,,,-99.99,,2013-02-02 05:48:00,
2013-02-02 00:53:00,18.3,0.4,-100.00,North,-999,-999.0,-999.0,50,-99.99,,,-99.99,,2013-02-02 05:53:00,
2013-02-02 00:58:00,18.3,0.4,-100.00,North,-999,-999.0,-999.0,50,-99.99,,,-99.99,,2013-02-02 05:58:00,
2013-02-02 01:03:00,18.3,1.1,-100.00,North,-999,-999.0,-999.0,52,-99.99,,,-99.99,,2013-02-02 06:03:00,
2013-02-02 01:08:00,18.3,0.5,-100.00,North,-999,-999.0,-999.0,50,-99.99,,,-99.99,,2013-02-02 06:08:00,
2013-02-02 01:13:00,18.1,1.1,-100.00,North,-999,-999.0,-999.0,52,-99.99,,,-99.99,,2013-02-02 06:13:00,
2013-02-02 01:18:00,18.3,1.3,-100.00,North,-999,-999.0,-999.0,52,-99.99,,,-99.99,,2013-02-02 06:18:00,
2013-02-02 01:23:00,18.5,1.8,-100.00,North,-999,-999.0,-999.0,53,-99.99,,,-99.99,,2013-02-02 06:23:00,
2013-02-02 01:28:00,18.5,1.3,-100.00,North,-999,-999.0,-999.0,52,-99.99,,,-99.99,,2013-02-02 06:28:00,
2013-02-02 01:33:00,18.3,1.5,-100.00,North,-999,-999.0,-999.0,53,-99.99,,,-99.99,,2013-02-02 06:33:00,
2013-02-02 01:38:00,18.3,1.2,-100.00,North,-999,-999.0,-999.0,52,-99.99,,,-99.99,,2013-02-02 06:38:00,
2013-02-02 01:43:00,18.1,1.3,-100.00,North,-999,-999.0,-999.0,53,-99.99,,,-99.99,,2013-02-02 06:43:00,
2013-02-02 01:49:00,18.0,1.2,-100.00,North,-999,-999.0,-999.0,53,-99.99,,,-99.99,,2013-02-02 06:49:00,
2013-02-02 01:54:00,18.0,0.8,-100.00,North,-999,-999.0,-999.0,52,-99.99,,,-99.99,,2013-02-02 06:54:00,
2013-02-02 01:59:00,17.8,0.6,-100.00,North,-999,-999.0,-999.0,52,-99.99,,,-99.99,,2013-02-02 06:59:00,
2013-02-02 02:04:00,17.8,0.4,-100.00,North,-999,-999.0,-999.0,51,-99.99,,,-99.99,,2013-02-02 07:04:00,
2013-02-02 02:09:00,17.6,0.1,-100.00,North,-999,-999.0,-999.0,51,-99.99,,,-99.99,,2013-02-02 07:09:00,
2013-02-02 02:14:00,17.6,-0.3,-100.00,North,-999,-999.0,-999.0,50,-99.99,,,-99.99,,2013-02-02 07:14:00,
2013-02-02 02:19:00,17.6,-0.4,-100.00,North,-999,-999.0,-999.0,50,-99.99,,,-99.99,,2013-02-02 07:19:00,
2013-02-02 02:26:00,17.4,-99.9,-100.00,North,-999,-999.0,-999.0,48,-99.99,,,-99.99,,2013-02-02 07:26:00,
2013-02-02 02:31:00,17.4,-99.9,-100.00,North,-999,-999.0,-999.0,49,-99.99,,,-99.99,,2013-02-02 07:31:00,
2013-02-02 02:36:00,17.4,-99.9,-100.00,North,-999,-999.0,-999.0,46,-99.99,,,-99.99,,2013-02-02 07:36:00,
2013-02-02 02:41:00,17.2,-99.9,-100.00,North,-999,-999.0,-999.0,45,-99.99,,,-99.99,,2013-02-02 07:41:00,
2013-02-02 02:46:00,17.2,-99.9,-100.00,North,-999,-999.0,-999.0,46,-99.99,,,-99.99,,2013-02-02 07:46:00,
2013-02-02 02:51:00,17.1,-99.9,-100.00,North,-999,-999.0,-999.0,46,-99.99,,,-99.99,,2013-02-02 07:51:00,
2013-02-02 02:56:00,17.1,-99.9,-100.00,North,-999,-999.0,-999.0,46,-99.99,,,-99.99,,2013-02-02 07:56:00,
2013-02-02 03:01:00,17.1,-99.9,-100.00,North,-999,-999.0,-999.0,46,-99.99,,,-99.99,,2013-02-02 08:01:00,
2013-02-02 03:06:00,16.9,-99.9,-100.00,North,-999,-999.0,-999.0,45,-99.99,,,-99.99,,2013-02-02 08:06:00,
2013-02-02 03:11:00,16.9,-99.9,-100.00,North,-999,-999.0,-999.0,46,-99.99,,,-99.99,,2013-02-02 08:11:00,
2013-02-02 03:16:00,16.9,-99.9,-100.00,North,-999,-999.0,-999.0,47,-99.99,,,-99.99,,2013-02-02 08:16:00,
2013-02-02 03:21:00,16.5,-99.9,-100.00,North,-999,-999.0,-999.0,46,-99.99,,,-99.99,,2013-02-02 08:21:00,
2013-02-02 03:26:00,16.5,-99.9,-100.00,North,-999,-999.0,-999.0,45,-99.99,,,-99.99,,2013-02-02 08:26:00,
2013-02-02 03:31:00,16.5,-99.9,-100.00,North,-999,-999.0,-999.0,44,-99.99,,,-99.99,,2013-02-02 08:31:00,
2013-02-02 03:36:00,16.3,-99.9,-100.00,North,-999,-999.0,-999.0,45,-99.99,,,-99.99,,2013-02-02 08:36:00,
2013-02-02 03:41:00,16.3,-99.9,-100.00,North,-999,-999.0,-999.0,45,-99.99,,,-99.99,,2013-02-02 08:41:00,
2013-02-02 03:46:00,16.3,-99.9,-100.00,North,-999,-999.0,-999.0,46,-99.99,,,-99.99,,2013-02-02 08:46:00,
2013-02-02 03:51:00,16.2,-99.9,-100.00,North,-999,-999.0,-999.0,46,-99.99,,,-99.99,,2013-02-02 08:51:00,
2013-02-02 03:56:00,16.0,-99.9,-100.00,North,-999,-999.0,-999.0,46,-99.99,,,-99.99,,2013-02-02 08:56:00,
2013-02-02 04:01:00,16.0,-99.9,-100.00,North,-999,-999.0,-999.0,47,-99.99,,,-99.99,,2013-02-02 09:01:00,
2013-02-02 04:06:00,16.0,-99.9,-100.00,North,-999,-999.0,-999.0,46,-99.99,,,-99.99,,2013-02-02 09:06:00,
2013-02-02 04:11:00,16.0,-99.9,-100.00,North,-999,-999.0,-999.0,45,-99.99,,,-99.99,,2013-02-02 09:11:00,
2013-02-02 04:16:00,15.8,-99.9,-100.00,North,-999,-999.0,-999.0,45,-99.99,,,-99.99,,2013-02-02 09:16:00,
2013-02-02 04:21:00,15.8,-99.9,-100.00,North,-999,-999.0,-999.0,45,-99.99,,,-99.99,,2013-02-02 09:21:00,
2013-02-02 04:26:00,15.6,-99.9,-100.00,North,-999,-999.0,-999.0,46,-99.99,,,-99.99,,2013-02-02 09:26:00,
2013-02-02 04:31:00,15.4,-99.9,-100.00,North,-999,-999.0,-999.0,47,-99.99,,,-99.99,,2013-02-02 09:31:00,
2013-02-02 04:36:00,15.4,-99.9,-100.00,North,-999,-999.0,-999.0,47,-99.99,,,-99.99,,2013-02-02 09:36:00,
2013-02-02 04:41:00,15.3,-99.9,-100.00,North,-999,-999.0,-999.0,46,-99.99,,,-99.99,,2013-02-02 09:41:00,
2013-02-02 04:46:00,15.3,-99.9,-100.00,North,-999,-999.0,-999.0,47,-99.99,,,-99.99,,2013-02-02 09:46:00,
2013-02-02 04:51:00,15.1,-99.9,-100.00,North,-999,-999.0,-999.0,49,-99.99,,,-99.99,,2013-02-02 09:51:00,
2013-02-02 04:56:00,14.9,-2.9,-100.00,North,-999,-999.0,-999.0,50,-99.99,,,-99.99,,2013-02-02 09:56:00,
2013-02-02 05:01:00,14.9,-2.2,-100.00,North,-999,-999.0,-999.0,52,-99.99,,,-99.99,,2013-02-02 10:01:00,
2013-02-02 05:06:00,14.9,-2.7,-100.00,North,-999,-999.0,-999.0,51,-99.99,,,-99.99,,2013-02-02 10:06:00,
2013-02-02 05:11:00,14.7,-2.9,-100.00,North,-999,-999.0,-999.0,51,-99.99,,,-99.99,,2013-02-02 10:11:00,
2013-02-02 05:16:00,14.5,-2.8,-100.00,North,-999,-999.0,-999.0,51,-99.99,,,-99.99,,2013-02-02 10:16:00,
2013-02-02 05:21:00,14.4,-2.5,-100.00,North,-999,-999.0,-999.0,53,-99.99,,,-99.99,,2013-02-02 10:21:00,
2013-02-02 05:26:00,14.2,-2.8,-100.00,North,-999,-999.0,-999.0,52,-99.99,,,-99.99,,2013-02-02 10:26:00,
2013-02-02 05:31:00,14.0,-3.0,-100.00,North,-999,-999.0,-999.0,52,-99.99,,,-99.99,,2013-02-02 10:31:00,
2013-02-02 05:36:00,14.0,-2.9,-100.00,North,-999,-999.0,-999.0,53,-99.99,,,-99.99,,2013-02-02 10:36:00,
2013-02-02 05:41:00,13.8,-2.4,-100.00,North,-999,-999.0,-999.0,55,-99.99,,,-99.99,,2013-02-02 10:41:00,
2013-02-02 05:46:00,13.8,-1.8,-100.00,North,-999,-999.0,-999.0,56,-99.99,,,-99.99,,2013-02-02 10:46:00,
2013-02-02 05:51:00,13.6,-2.8,-100.00,North,-999,-999.0,-999.0,54,-99.99,,,-99.99,,2013-02-02 10:51:00,
2013-02-02 05:56:00,13.6,-3.5,-100.00,North,-999,-999.0,-999.0,52,-99.99,,,-99.99,,2013-02-02 10:56:00,
2013-02-02 06:01:00,13.6,-4.1,-100.00,North,-999,-999.0,-999.0,50,-99.99,,,-99.99,,2013-02-02 11:01:00,
2013-02-02 06:06:00,13.6,-3.9,-100.00,North,-999,-999.0,-999.0,51,-99.99,,,-99.99,,2013-02-02 11:06:00,
2013-02-02 06:11:00,13.6,-3.5,-100.00,North,-999,-999.0,-999.0,52,-99.99,,,-99.99,,2013-02-02 11:11:00,
2013-02-02 06:16:00,13.5,-3.7,-100.00,North,-999,-999.0,-999.0,52,-99.99,,,-99.99,,2013-02-02 11:16:00,
2013-02-02 06:21:00,13.5,-3.2,-100.00,North,-999,-999.0,-999.0,53,-99.99,,,-99.99,,2013-02-02 11:21:00,
2013-02-02 06:26:00,13.5,-3.4,-100.00,North,-999,-999.0,-999.0,53,-99.99,,,-99.99,,2013-02-02 11:26:00,
2013-02-02 06:31:00,13.3,-3.9,-100.00,North,-999,-999.0,-999.0,52,-99.99,,,-99.99,,2013-02-02 11:31:00,
2013-02-02 06:36:00,13.3,-3.8,-100.00,North,-999,-999.0,-999.0,52,-99.99,,,-99.99,,2013-02-02 11:36:00,
2013-02-02 06:41:00,13.1,-3.7,-100.00,North,-999,-999.0,-999.0,53,-99.99,,,-99.99,,2013-02-02 11:41:00,
2013-02-02 06:46:00,12.9,-3.3,-100.00,North,-999,-999.0,-999.0,55,-99.99,,,-99.99,,2013-02-02 11:46:00,
2013-02-02 06:51:00,12.9,-3.2,-100.00,North,-999,-999.0,-999.0,55,-99.99,,,-99.99,,2013-02-02 11:51:00,
2013-02-02 06:56:00,12.9,-3.0,-100.00,North,-999,-999.0,-999.0,55,-99.99,,,-99.99,,2013-02-02 11:56:00,
2013-02-02 07:01:00,13.1,-2.9,-100.00,North,-999,-999.0,-999.0,55,-99.99,,,-99.99,,2013-02-02 12:01:00,
2013-02-02 07:06:00,12.9,-2.8,-100.00,North,-999,-999.0,-999.0,56,-99.99,,,-99.99,,2013-02-02 12:06:00,
2013-02-02 07:11:00,12.9,-3.2,-100.00,North,-999,-999.0,-999.0,55,-99.99,,,-99.99,,2013-02-02 12:11:00,
2013-02-02 07:16:00,12.9,-2.7,-100.00,North,-999,-999.0,-999.0,56,-99.99,,,-99.99,,2013-02-02 12:16:00,
2013-02-02 07:21:00,12.7,-3.1,-100.00,North,-999,-999.0,-999.0,56,-99.99,,,-99.99,,2013-02-02 12:21:00,
2013-02-02 07:27:00,12.6,-2.8,-100.00,North,-999,-999.0,-999.0,57,-99.99,,,-99.99,,2013-02-02 12:27:00,
2013-02-02 07:32:00,12.6,-3.1,-100.00,North,-999,-999.0,-999.0,56,-99.99,,,-99.99,,2013-02-02 12:32:00,
2013-02-02 07:37:00,12.4,-2.8,-100.00,North,-999,-999.0,-999.0,57,-99.99,,,-99.99,,2013-02-02 12:37:00,
2013-02-02 07:42:00,12.4,-2.4,-100.00,North,-999,-999.0,-999.0,58,-99.99,,,-99.99,,2013-02-02 12:42:00,
2013-02-02 07:47:00,12.6,-2.2,-100.00,North,-999,-999.0,-999.0,59,-99.99,,,-99.99,,2013-02-02 12:47:00,
2013-02-02 07:52:00,12.7,-2.5,-100.00,North,-999,-999.0,-999.0,57,-99.99,,,-99.99,,2013-02-02 12:52:00,
2013-02-02 07:57:00,13.3,-0.4,-100.00,North,-999,-999.0,-999.0,62,-99.99,,,-99.99,,2013-02-02 12:57:00,
2013-02-02 08:02:00,13.6,-0.9,-100.00,North,-999,-999.0,-999.0,59,-99.99,,,-99.99,,2013-02-02 13:02:00,
2013-02-02 08:07:00,14.0,-2.4,-100.00,North,-999,-999.0,-999.0,54,-99.99,,,-99.99,,2013-02-02 13:07:00,
2013-02-02 08:12:00,14.5,-1.2,-100.00,North,-999,-999.0,-999.0,56,-99.99,,,-99.99,,2013-02-02 13:12:00,
2013-02-02 08:17:00,15.1,-1.4,-100.00,North,-999,-999.0,-999.0,54,-99.99,,,-99.99,,2013-02-02 13:17:00,
2013-02-02 08:22:00,15.3,-2.1,-100.00,North,-999,-999.0,-999.0,51,-99.99,,,-99.99,,2013-02-02 13:22:00,
2013-02-02 08:27:00,15.8,-1.7,-100.00,North,-999,-999.0,-999.0,51,-99.99,,,-99.99,,2013-02-02 13:27:00,
2013-02-02 08:32:00,16.0,-99.9,-100.00,North,-999,-999.0,-999.0,48,-99.99,,,-99.99,,2013-02-02 13:32:00,
2013-02-02 08:37:00,16.0,-99.9,-100.00,North,-999,-999.0,-999.0,48,-99.99,,,-99.99,,2013-02-02 13:37:00,
2013-02-02 08:42:00,16.2,-99.9,-100.00,North,-999,-999.0,-999.0,48,-99.99,,,-99.99,,2013-02-02 13:42:00,
2013-02-02 08:47:00,16.5,-99.9,-100.00,North,-999,-999.0,-999.0,48,-99.99,,,-99.99,,2013-02-02 13:47:00,
2013-02-02 08:52:00,16.9,-99.9,-100.00,North,-999,-999.0,-999.0,48,-99.99,,,-99.99,,2013-02-02 13:52:00,
2013-02-02 08:57:00,17.1,-99.9,-100.00,North,-999,-999.0,-999.0,48,-99.99,,,-99.99,,2013-02-02 13:57:00,
2013-02-02 09:02:00,17.4,-99.9,-100.00,North,-999,-999.0,-999.0,48,-99.99,,,-99.99,,2013-02-02 14:02:00,
2013-02-02 09:07:00,17.6,-99.9,-100.00,North,-999,-999.0,-999.0,47,-99.99,,,-99.99,,2013-02-02 14:07:00,
2013-02-02 09:12:00,18.0,-99.9,-100.00,North,-999,-999.0,-999.0,48,-99.99,,,-99.99,,2013-02-02 14:12:00,
2013-02-02 09:17:00,18.3,-99.9,-100.00,North,-999,-999.0,-999.0,46,-99.99,,,-99.99,,2013-02-02 14:17:00,
2013-02-02 09:22:00,18.3,-99.9,-100.00,North,-999,-999.0,-999.0,45,-99.99,,,-99.99,,2013-02-02 14:22:00,
2013-02-02 09:27:00,18.5,-99.9,-100.00,North,-999,-999.0,-999.0,45,-99.99,,,-99.99,,2013-02-02 14:27:00,
2013-02-02 09:32:00,18.9,-99.9,-100.00,North,-999,-999.0,-999.0,45,-99.99,,,-99.99,,2013-02-02 14:32:00,
2013-02-02 09:37:00,19.0,-99.9,-100.00,North,-999,-999.0,-999.0,45,-99.99,,,-99.99,,2013-02-02 14:37:00,
2013-02-02 09:42:00,18.9,-99.9,-100.00,North,-999,-999.0,-999.0,45,-99.99,,,-99.99,,2013-02-02 14:42:00,
2013-02-02 09:47:00,19.0,-99.9,-100.00,North,-999,-999.0,-999.0,45,-99.99,,,-99.99,,2013-02-02 14:47:00,
2013-02-02 09:52:00,18.9,-99.9,-100.00,North,-999,-999.0,-999.0,47,-99.99,,,-99.99,,2013-02-02 14:52:00,
2013-02-02 09:57:00,19.0,-99.9,-100.00,North,-999,-999.0,-999.0,46,-99.99,,,-99.99,,2013-02-02 14:57:00,
2013-02-02 10:02:00,19.0,-99.9,-100.00,North,-999,-999.0,-999.0,47,-99.99,,,-99.99,,2013-02-02 15:02:00,
2013-02-02 10:07:00,19.2,-99.9,-100.00,North,-999,-999.0,-999.0,46,-99.99,,,-99.99,,2013-02-02 15:07:00,
2013-02-02 10:12:00,19.6,-99.9,-100.00,North,-999,-999.0,-999.0,46,-99.99,,,-99.99,,2013-02-02 15:12:00,
2013-02-02 10:17:00,19.9,-99.9,-100.00,North,-999,-999.0,-999.0,47,-99.99,,,-99.99,,2013-02-02 15:17:00,
2013-02-02 10:22:00,20.3,-99.9,-100.00,North,-999,-999.0,-999.0,45,-99.99,,,-99.99,,2013-02-02 15:22:00,
2013-02-02 10:27:00,20.5,-99.9,-100.00,North,-999,-999.0,-999.0,46,-99.99,,,-99.99,,2013-02-02 15:27:00,
2013-02-02 10:32:00,21.2,-99.9,-100.00,North,-999,-999.0,-999.0,46,-99.99,,,-99.99,,2013-02-02 15:32:00,
2013-02-02 10:37:00,21.4,-99.9,-100.00,North,-999,-999.0,-999.0,44,-99.99,,,-99.99,,2013-02-02 15:37:00,
2013-02-02 10:42:00,21.7,-99.9,-100.00,North,-999,-999.0,-999.0,43,-99.99,,,-99.99,,2013-02-02 15:42:00,
2013-02-02 10:47:00,21.9,-99.9,-100.00,North,-999,-999.0,-999.0,44,-99.99,,,-99.99,,2013-02-02 15:47:00,
2013-02-02 10:54:00,22.3,-99.9,-100.00,North,-999,-999.0,-999.0,43,-99.99,,,-99.99,,2013-02-02 15:54:00,
2013-02-02 10:59:00,22.1,-99.9,-100.00,North,-999,-999.0,-999.0,42,-99.99,,,-99.99,,2013-02-02 15:59:00,
2013-02-02 11:04:00,22.3,-99.9,-100.00,North,-999,-999.0,-999.0,45,-99.99,,,-99.99,,2013-02-02 16:04:00,
2013-02-02 11:09:00,22.6,-99.9,-100.00,North,-999,-999.0,-999.0,44,-99.99,,,-99.99,,2013-02-02 16:09:00,
2013-02-02 11:14:00,22.6,-99.9,-100.00,North,-999,-999.0,-999.0,43,-99.99,,,-99.99,,2013-02-02 16:14:00,
2013-02-02 11:19:00,23.2,-99.9,-100.00,North,-999,-999.0,-999.0,43,-99.99,,,-99.99,,2013-02-02 16:19:00,
2013-02-02 11:24:00,22.8,-99.9,-100.00,North,-999,-999.0,-999.0,42,-99.99,,,-99.99,,2013-02-02 16:24:00,
2013-02-02 11:29:00,23.2,-99.9,-100.00,North,-999,-999.0,-999.0,42,-99.99,,,-99.99,,2013-02-02 16:29:00,
2013-02-02 11:34:00,23.2,-99.9,-100.00,North,-999,-999.0,-999.0,41,-99.99,,,-99.99,,2013-02-02 16:34:00,
2013-02-02 11:39:00,23.5,-99.9,-100.00,North,-999,-999.0,-999.0,42,-99.99,,,-99.99,,2013-02-02 16:39:00,
2013-02-02 11:44:00,23.7,-99.9,-100.00,North,-999,-999.0,-999.0,40,-99.99,,,-99.99,,2013-02-02 16:44:00,
2013-02-02 11:49:00,23.7,-99.9,-100.00,North,-999,-999.0,-999.0,41,-99.99,,,-99.99,,2013-02-02 16:49:00,
2013-02-02 11:54:00,23.7,-99.9,-100.00,North,-999,-999.0,-999.0,40,-99.99,,,-99.99,,2013-02-02 16:54:00,
2013-02-02 11:59:00,23.9,-99.9,-100.00,North,-999,-999.0,-999.0,41,-99.99,,,-99.99,,2013-02-02 16:59:00,
2013-02-02 12:04:00,24.3,-99.9,-100.00,North,-999,-999.0,-999.0,42,-99.99,,,-99.99,,2013-02-02 17:04:00,
2013-02-02 12:09:00,24.4,-99.9,-100.00,North,-999,-999.0,-999.0,41,-99.99,,,-99.99,,2013-02-02 17:09:00,
2013-02-02 12:14:00,24.8,-99.9,-100.00,North,-999,-999.0,-999.0,39,-99.99,,,-99.99,,2013-02-02 17:14:00,
2013-02-02 12:19:00,25.2,-99.9,-100.00,North,-999,-999.0,-999.0,38,-99.99,,,-99.99,,2013-02-02 17:19:00,
2013-02-02 12:24:00,25.7,-99.9,-100.00,North,-999,-999.0,-999.0,39,-99.99,,,-99.99,,2013-02-02 17:24:00,
2013-02-02 12:29:00,25.7,-99.9,-100.00,North,-999,-999.0,-999.0,38,-99.99,,,-99.99,,2013-02-02 17:29:00,
2013-02-02 12:34:00,25.7,-99.9,-100.00,North,-999,-999.0,-999.0,37,-99.99,,,-99.99,,2013-02-02 17:34:00,
2013-02-02 12:39:00,25.3,-99.9,-100.00,North,-999,-999.0,-999.0,38,-99.99,,,-99.99,,2013-02-02 17:39:00,
2013-02-02 12:44:00,25.5,-99.9,-100.00,North,-999,-999.0,-999.0,38,-99.99,,,-99.99,,2013-02-02 17:44:00,
2013-02-02 12:49:00,25.7,-99.9,-100.00,North,-999,-999.0,-999.0,38,-99.99,,,-99.99,,2013-02-02 17:49:00,
2013-02-02 12:54:00,25.9,-99.9,-100.00,North,-999,-999.0,-999.0,38,-99.99,,,-99.99,,2013-02-02 17:54:00,
2013-02-02 12:59:00,26.2,-99.9,-100.00,North,-999,-999.0,-999.0,38,-99.99,,,-99.99,,2013-02-02 17:59:00,
2013-02-02 13:04:00,26.6,-99.9,-100.00,North,-999,-999.0,-999.0,38,-99.99,,,-99.99,,2013-02-02 18:04:00,
2013-02-02 13:10:00,26.4,-99.9,-100.00,North,-999,-999.0,-999.0,38,-99.99,,,-99.99,,2013-02-02 18:10:00,
2013-02-02 13:15:00,26.6,-99.9,-100.00,North,-999,-999.0,-999.0,37,-99.99,,,-99.99,,2013-02-02 18:15:00,
2013-02-02 13:20:00,27.0,-99.9,-100.00,North,-999,-999.0,-999.0,37,-99.99,,,-99.99,,2013-02-02 18:20:00,
2013-02-02 13:25:00,26.4,-99.9,-100.00,North,-999,-999.0,-999.0,35,-99.99,,,-99.99,,2013-02-02 18:25:00,
2013-02-02 13:32:00,26.1,-99.9,-100.00,North,-999,-999.0,-999.0,37,-99.99,,,-99.99,,2013-02-02 18:32:00,
2013-02-02 13:40:00,26.2,-99.9,-100.00,North,-999,-999.0,-999.0,38,-99.99,,,-99.99,,2013-02-02 18:40:00,
2013-02-02 13:45:00,26.1,-99.9,-100.00,North,-999,-999.0,-999.0,37,-99.99,,,-99.99,,2013-02-02 18:45:00,
2013-02-02 13:50:00,26.6,-99.9,-100.00,North,-999,-999.0,-999.0,36,-99.99,,,-99.99,,2013-02-02 18:50:00,
2013-02-02 13:55:00,26.8,-99.9,-100.00,North,-999,-999.0,-999.0,36,-99.99,,,-99.99,,2013-02-02 18:55:00,
2013-02-02 14:00:00,26.6,-99.9,-100.00,North,-999,-999.0,-999.0,35,-99.99,,,-99.99,,2013-02-02 19:00:00,
2013-02-02 14:05:00,26.8,-99.9,-100.00,North,-999,-999.0,-999.0,36,-99.99,,,-99.99,,2013-02-02 19:05:00,
2013-02-02 14:10:00,26.6,-99.9,-100.00,North,-999,-999.0,-999.0,35,-99.99,,,-99.99,,2013-02-02 19:10:00,
2013-02-02 14:15:00,26.6,-99.9,-100.00,North,-999,-999.0,-999.0,35,-99.99,,,-99.99,,2013-02-02 19:15:00,
2013-02-02 14:20:00,26.6,-99.9,-100.00,North,-999,-999.0,-999.0,34,-99.99,,,-99.99,,2013-02-02 19:20:00,
2013-02-02 14:25:00,26.8,-99.9,-100.00,North,-999,-999.0,-999.0,35,-99.99,,,-99.99,,2013-02-02 19:25:00,
2013-02-02 14:30:00,26.8,-99.9,-100.00,North,-999,-999.0,-999.0,35,-99.99,,,-99.99,,2013-02-02 19:30:00,
2013-02-02 14:35:00,26.8,-99.9,-100.00,North,-999,-999.0,-999.0,35,-99.99,,,-99.99,,2013-02-02 19:35:00,
2013-02-02 14:40:00,26.8,-99.9,-100.00,North,-999,-999.0,-999.0,35,-99.99,,,-99.99,,2013-02-02 19:40:00,
2013-02-02 14:45:00,27.1,-99.9,-100.00,North,-999,-999.0,-999.0,35,-99.99,,,-99.99,,2013-02-02 19:45:00,
2013-02-02 14:50:00,27.3,-99.9,-100.00,North,-999,-999.0,-999.0,34,-99.99,,,-99.99,,2013-02-02 19:50:00,
2013-02-02 14:55:00,27.5,-99.9,-100.00,North,-999,-999.0,-999.0,34,-99.99,,,-99.99,,2013-02-02 19:55:00,
2013-02-02 15:00:00,27.0,-99.9,-100.00,North,-999,-999.0,-999.0,34,-99.99,,,-99.99,,2013-02-02 20:00:00,
2013-02-02 15:05:00,27.1,-99.9,-100.00,North,-999,-999.0,-999.0,33,-99.99,,,-99.99,,2013-02-02 20:05:00,
2013-02-02 15:10:00,27.0,-99.9,-100.00,North,-999,-999.0,-999.0,33,-99.99,,,-99.99,,2013-02-02 20:10:00,
2013-02-02 15:15:00,26.8,-99.9,-100.00,North,-999,-999.0,-999.0,33,-99.99,,,-99.99,,2013-02-02 20:15:00,
2013-02-02 15:20:00,27.0,-99.9,-100.00,North,-999,-999.0,-999.0,34,-99.99,,,-99.99,,2013-02-02 20:20:00,
2013-02-02 15:25:00,26.6,-99.9,-100.00,North,-999,-999.0,-999.0,33,-99.99,,,-99.99,,2013-02-02 20:25:00,
2013-02-02 15:30:00,26.4,-99.9,-100.00,North,-999,-999.0,-999.0,33,-99.99,,,-99.99,,2013-02-02 20:30:00,
2013-02-02 15:35:00,26.2,-99.9,-100.00,North,-999,-999.0,-999.0,33,-99.99,,,-99.99,,2013-02-02 20:35:00,
2013-02-02 15:40:00,26.2,-99.9,-100.00,North,-999,-999.0,-999.0,34,-99.99,,,-99.99,,2013-02-02 20:40:00,
2013-02-02 15:45:00,26.1,-99.9,-100.00,North,-999,-999.0,-999.0,34,-99.99,,,-99.99,,2013-02-02 20:45:00,
2013-02-02 15:50:00,25.9,-99.9,-100.00,North,-999,-999.0,-999.0,34,-99.99,,,-99.99,,2013-02-02 20:50:00,
2013-02-02 15:55:00,26.1,-99.9,-100.00,North,-999,-999.0,-999.0,34,-99.99,,,-99.99,,2013-02-02 20:55:00,
2013-02-02 16:00:00,26.1,-99.9,-100.00,North,-999,-999.0,-999.0,34,-99.99,,,-99.99,,2013-02-02 21:00:00,
2013-02-02 16:05:00,26.1,-99.9,-100.00,North,-999,-999.0,-999.0,35,-99.99,,,-99.99,,2013-02-02 21:05:00,
2013-02-02 16:10:00,25.7,-99.9,-100.00,North,-999,-999.0,-999.0,34,-99.99,,,-99.99,,2013-02-02 21:10:00,
2013-02-02 16:15:00,25.7,-99.9,-100.00,North,-999,-999.0,-999.0,35,-99.99,,,-99.99,,2013-02-02 21:15:00,
2013-02-02 16:20:00,25.7,-99.9,-100.00,North,-999,-999.0,-999.0,35,-99.99,,,-99.99,,2013-02-02 21:20:00,
2013-02-02 16:25:00,25.7,-99.9,-100.00,North,-999,-999.0,-999.0,35,-99.99,,,-99.99,,2013-02-02 21:25:00,
2013-02-02 16:30:00,25.5,-99.9,-100.00,North,-999,-999.0,-999.0,35,-99.99,,,-99.99,,2013-02-02 21:30:00,
2013-02-02 16:35:00,25.3,-99.9,-100.00,North,-999,-999.0,-999.0,35,-99.99,,,-99.99,,2013-02-02 21:35:00,
2013-02-02 16:40:00,25.3,-99.9,-100.00,North,-999,-999.0,-999.0,35,-99.99,,,-99.99,,2013-02-02 21:40:00,
2013-02-02 16:45:00,25.2,-99.9,-100.00,North,-999,-999.0,-999.0,36,-99.99,,,-99.99,,2013-02-02 21:45:00,
2013-02-02 16:50:00,25.0,-99.9,-100.00,North,-999,-999.0,-999.0,36,-99.99,,,-99.99,,2013-02-02 21:50:00,
2013-02-02 16:55:00,24.8,-99.9,-100.00,North,-999,-999.0,-999.0,36,-99.99,,,-99.99,,2013-02-02 21:55:00,
2013-02-02 17:00:00,24.8,-99.9,-100.00,North,-999,-999.0,-999.0,36,-99.99,,,-99.99,,2013-02-02 22:00:00,
2013-02-02 17:05:00,24.6,-99.9,-100.00,North,-999,-999.0,-999.0,36,-99.99,,,-99.99,,2013-02-02 22:05:00,
2013-02-02 17:10:00,24.4,-99.9,-100.00,North,-999,-999.0,-999.0,36,-99.99,,,-99.99,,2013-02-02 22:10:00,
2013-02-02 17:15:00,24.4,-99.9,-100.00,North,-999,-999.0,-999.0,36,-99.99,,,-99.99,,2013-02-02 22:15:00,
2013-02-02 17:20:00,24.3,-99.9,-100.00,North,-999,-999.0,-999.0,37,-99.99,,,-99.99,,2013-02-02 22:20:00,
2013-02-02 17:25:00,24.3,-99.9,-100.00,North,-999,-999.0,-999.0,36,-99.99,,,-99.99,,2013-02-02 22:25:00,
2013-02-02 17:30:00,24.1,-99.9,-100.00,North,-999,-999.0,-999.0,37,-99.99,,,-99.99,,2013-02-02 22:30:00,
2013-02-02 17:35:00,23.9,-99.9,-100.00,North,-999,-999.0,-999.0,37,-99.99,,,-99.99,,2013-02-02 22:35:00,
2013-02-02 17:40:00,23.9,-99.9,-100.00,North,-999,-999.0,-999.0,38,-99.99,,,-99.99,,2013-02-02 22:40:00,
2013-02-02 17:45:00,23.7,-99.9,-100.00,North,-999,-999.0,-999.0,38,-99.99,,,-99.99,,2013-02-02 22:45:00,
2013-02-02 17:50:00,23.7,-99.9,-100.00,North,-999,-999.0,-999.0,39,-99.99,,,-99.99,,2013-02-02 22:50:00,
2013-02-02 17:55:00,23.5,-99.9,-100.00,North,-999,-999.0,-999.0,39,-99.99,,,-99.99,,2013-02-02 22:55:00,
2013-02-02 18:00:00,23.5,-99.9,-100.00,North,-999,-999.0,-999.0,40,-99.99,,,-99.99,,2013-02-02 23:00:00,
2013-02-02 18:05:00,23.4,-99.9,-100.00,North,-999,-999.0,-999.0,40,-99.99,,,-99.99,,2013-02-02 23:05:00,
2013-02-02 18:10:00,23.2,-99.9,-100.00,North,-999,-999.0,-999.0,41,-99.99,,,-99.99,,2013-02-02 23:10:00,
2013-02-02 18:15:00,23.2,-99.9,-100.00,North,-999,-999.0,-999.0,42,-99.99,,,-99.99,,2013-02-02 23:15:00,
2013-02-02 18:20:00,23.2,-99.9,-100.00,North,-999,-999.0,-999.0,42,-99.99,,,-99.99,,2013-02-02 23:20:00,
2013-02-02 18:25:00,23.2,-99.9,-100.00,North,-999,-999.0,-999.0,42,-99.99,,,-99.99,,2013-02-02 23:25:00,
2013-02-02 18:30:00,23.2,-99.9,-100.00,North,-999,-999.0,-999.0,43,-99.99,,,-99.99,,2013-02-02 23:30:00,
2013-02-02 18:35:00,23.2,-99.9,-100.00,North,-999,-999.0,-999.0,43,-99.99,,,-99.99,,2013-02-02 23:35:00,
2013-02-02 18:40:00,23.2,-99.9,-100.00,North,-999,-999.0,-999.0,43,-99.99,,,-99.99,,2013-02-02 23:40:00,
2013-02-02 18:45:00,23.0,-99.9,-100.00,North,-999,-999.0,-999.0,42,-99.99,,,-99.99,,2013-02-02 23:45:00,
2013-02-02 18:50:00,23.0,-99.9,-100.00,North,-999,-999.0,-999.0,42,-99.99,,,-99.99,,2013-02-02 23:50:00,
2013-02-02 18:55:00,23.0,-99.9,-100.00,North,-999,-999.0,-999.0,43,-99.99,,,-99.99,,2013-02-02 23:55:00,
2013-02-02 19:00:00,23.0,-99.9,-100.00,North,-999,-999.0,-999.0,42,-99.99,,,-99.99,,2013-02-03 00:00:00,
2013-02-02 19:05:00,23.0,-99.9,-100.00,North,-999,-999.0,-999.0,42,-99.99,,,-99.99,,2013-02-03 00:05:00,
2013-02-02 19:10:00,23.0,-99.9,-100.00,North,-999,-999.0,-999.0,43,-99.99,,,-99.99,,2013-02-03 00:10:00,
2013-02-02 19:15:00,22.8,-99.9,-100.00,North,-999,-999.0,-999.0,43,-99.99,,,-99.99,,2013-02-03 00:15:00,
2013-02-02 19:20:00,22.8,-99.9,-100.00,North,-999,-999.0,-999.0,43,-99.99,,,-99.99,,2013-02-03 00:20:00,
2013-02-02 19:25:00,22.8,-99.9,-100.00,North,-999,-999.0,-999.0,43,-99.99,,,-99.99,,2013-02-03 00:25:00,
2013-02-02 19:30:00,22.8,-99.9,-100.00,North,-999,-999.0,-999.0,44,-99.99,,,-99.99,,2013-02-03 00:30:00,
2013-02-02 19:35:00,22.6,-99.9,-100.00,North,-999,-999.0,-999.0,44,-99.99,,,-99.99,,2013-02-03 00:35:00,
2013-02-02 19:40:00,22.6,-99.9,-100.00,North,-999,-999.0,-999.0,44,-99.99,,,-99.99,,2013-02-03 00:40:00,
2013-02-02 19:45:00,22.6,-99.9,-100.00,North,-999,-999.0,-999.0,44,-99.99,,,-99.99,,2013-02-03 00:45:00,
2013-02-02 19:50:00,22.6,-99.9,-100.00,North,-999,-999.0,-999.0,44,-99.99,,,-99.99,,2013-02-03 00:50:00,
2013-02-02 19:55:00,22.5,-99.9,-100.00,North,-999,-999.0,-999.0,44,-99.99,,,-99.99,,2013-02-03 00:55:00,
2013-02-02 20:00:00,22.5,-99.9,-100.00,North,-999,-999.0,-999.0,45,-99.99,,,-99.99,,2013-02-03 01:00:00,
2013-02-02 20:05:00,22.3,-99.9,-100.00,North,-999,-999.0,-999.0,44,-99.99,,,-99.99,,2013-02-03 01:05:00,
2013-02-02 20:10:00,22.3,-99.9,-100.00,North,-999,-999.0,-999.0,44,-99.99,,,-99.99,,2013-02-03 01:10:00,
2013-02-02 20:15:00,22.3,-99.9,-100.00,North,-999,-999.0,-999.0,44,-99.99,,,-99.99,,2013-02-03 01:15:00,
2013-02-02 20:20:00,22.3,-99.9,-100.00,North,-999,-999.0,-999.0,45,-99.99,,,-99.99,,2013-02-03 01:20:00,
2013-02-02 20:25:00,22.1,-99.9,-100.00,North,-999,-999.0,-999.0,45,-99.99,,,-99.99,,2013-02-03 01:25:00,
2013-02-02 20:30:00,22.1,-99.9,-100.00,North,-999,-999.0,-999.0,45,-99.99,,,-99.99,,2013-02-03 01:30:00,
2013-02-02 20:35:00,22.1,-99.9,-100.00,North,-999,-999.0,-999.0,46,-99.99,,,-99.99,,2013-02-03 01:35:00,
2013-02-02 20:40:00,21.9,-99.9,-100.00,North,-999,-999.0,-999.0,47,-99.99,,,-99.99,,2013-02-03 01:40:00,
2013-02-02 20:45:00,21.9,-99.9,-100.00,North,-999,-999.0,-999.0,47,-99.99,,,-99.99,,2013-02-03 01:45:00,
2013-02-02 20:50:00,21.9,-99.9,-100.00,North,-999,-999.0,-999.0,46,-99.99,,,-99.99,,2013-02-03 01:50:00,
2013-02-02 20:55:00,21.9,-99.9,-100.00,North,-999,-999.0,-999.0,46,-99.99,,,-99.99,,2013-02-03 01:55:00,
2013-02-02 21:00:00,21.9,-99.9,-100.00,North,-999,-999.0,-999.0,47,-99.99,,,-99.99,,2013-02-03 02:00:00,
2013-02-02 21:05:00,21.9,-99.9,-100.00,North,-999,-999.0,-999.0,47,-99.99,,,-99.99,,2013-02-03 02:05:00,
2013-02-02 21:10:00,22.1,-99.9,-100.00,North,-999,-999.0,-999.0,47,-99.99,,,-99.99,,2013-02-03 02:10:00,
2013-02-02 21:15:00,22.1,-99.9,-100.00,North,-999,-999.0,-999.0,48,-99.99,,,-99.99,,2013-02-03 02:15:00,
2013-02-02 21:20:00,22.1,-99.9,-100.00,North,-999,-999.0,-999.0,47,-99.99,,,-99.99,,2013-02-03 02:20:00,
2013-02-02 21:25:00,22.3,-99.9,-100.00,North,-999,-999.0,-999.0,47,-99.99,,,-99.99,,2013-02-03 02:25:00,
2013-02-02 21:30:00,22.3,-99.9,-100.00,North,-999,-999.0,-999.0,47,-99.99,,,-99.99,,2013-02-03 02:30:00,
2013-02-02 21:35:00,22.3,-99.9,-100.00,North,-999,-999.0,-999.0,47,-99.99,,,-99.99,,2013-02-03 02:35:00,
2013-02-02 21:40:00,22.3,-99.9,-100.00,North,-999,-999.0,-999.0,47,-99.99,,,-99.99,,2013-02-03 02:40:00,
2013-02-02 21:45:00,22.3,-99.9,-100.00,North,-999,-999.0,-999.0,47,-99.99,,,-99.99,,2013-02-03 02:45:00,
2013-02-02 21:50:00,22.5,-99.9,-100.00,North,-999,-999.0,-999.0,48,-99.99,,,-99.99,,2013-02-03 02:50:00,
2013-02-02 21:55:00,22.5,-99.9,-100.00,North,-999,-999.0,-999.0,48,-99.99,,,-99.99,,2013-02-03 02:55:00,
2013-02-02 22:00:00,22.3,-99.9,-100.00,North,-999,-999.0,-999.0,49,-99.99,,,-99.99,,2013-02-03 03:00:00,
2013-02-02 22:05:00,22.3,4.8,-100.00,North,-999,-999.0,-999.0,51,-99.99,,,-99.99,,2013-02-03 03:05:00,
2013-02-02 22:10:00,22.3,5.0,-100.00,North,-999,-999.0,-999.0,51,-99.99,,,-99.99,,2013-02-03 03:10:00,
2013-02-02 22:15:00,22.3,5.6,-100.00,North,-999,-999.0,-999.0,53,-99.99,,,-99.99,,2013-02-03 03:15:00,
2013-02-02 22:20:00,22.1,5.6,-100.00,North,-999,-999.0,-999.0,54,-99.99,,,-99.99,,2013-02-03 03:20:00,
2013-02-02 22:25:00,21.9,5.6,-100.00,North,-999,-999.0,-999.0,54,-99.99,,,-99.99,,2013-02-03 03:25:00,
2013-02-02 22:30:00,21.9,6.1,-100.00,North,-999,-999.0,-999.0,56,-99.99,,,-99.99,,2013-02-03 03:30:00,
2013-02-02 22:35:00,21.9,6.9,-100.00,North,-999,-999.0,-999.0,58,-99.99,,,-99.99,,2013-02-03 03:35:00,
2013-02-02 22:40:00,21.7,7.4,-100.00,North,-999,-999.0,-999.0,60,-99.99,,,-99.99,,2013-02-03 03:40:00,
2013-02-02 22:45:00,21.6,8.2,-100.00,North,-999,-999.0,-999.0,62,-99.99,,,-99.99,,2013-02-03 03:45:00,
2013-02-02 22:50:00,21.4,8.8,-100.00,North,-999,-999.0,-999.0,65,-99.99,,,-99.99,,2013-02-03 03:50:00,
2013-02-02 22:55:00,21.2,9.3,-100.00,North,-999,-999.0,-999.0,67,-99.99,,,-99.99,,2013-02-03 03:55:00,
2013-02-02 23:00:00,21.2,9.6,-100.00,North,-999,-999.0,-999.0,67,-99.99,,,-99.99,,2013-02-03 04:00:00,
2013-02-02 23:05:00,21.2,9.9,-100.00,North,-999,-999.0,-999.0,68,-99.99,,,-99.99,,2013-02-03 04:05:00,
2013-02-02 23:10:00,21.0,11.2,-100.00,North,-999,-999.0,-999.0,72,-99.99,,,-99.99,,2013-02-03 04:10:00,
2013-02-02 23:15:00,21.0,12.0,-100.00,North,-999,-999.0,-999.0,74,-99.99,,,-99.99,,2013-02-03 04:15:00,
2013-02-02 23:20:00,21.0,12.2,-100.00,North,-999,-999.0,-999.0,75,-99.99,,,-99.99,,2013-02-03 04:20:00,
2013-02-02 23:25:00,20.8,13.5,-100.00,North,-999,-999.0,-999.0,79,-99.99,,,-99.99,,2013-02-03 04:25:00,
2013-02-02 23:30:00,20.7,14.2,-100.00,North,-999,-999.0,-999.0,82,-99.99,,,-99.99,,2013-02-03 04:30:00,
2013-02-02 23:35:00,20.5,14.8,-100.00,North,-999,-999.0,-999.0,84,-99.99,,,-99.99,,2013-02-03 04:35:00,
2013-02-02 23:40:00,20.1,16.7,-100.00,North,-999,-999.0,-999.0,90,-99.99,,,-99.99,,2013-02-03 04:40:00,
2013-02-02 23:45:00,20.3,19.1,-100.00,North,-999,-999.0,-999.0,96,-99.99,,,-99.99,,2013-02-03 04:45:00,
2013-02-02 23:50:00,20.1,19.7,-100.00,North,-999,-999.0,-999.0,98,-99.99,,,-99.99,,2013-02-03 04:50:00,
2013-02-02 23:55:00,20.1,20.1,-100.00,North,-999,-999.0,-999.0,99,-99.99,,,-99.99,,2013-02-03 04:55:00,